Regional Weather Roundup
Issued by NWS

Home | Current Version | Previous Version | Graphics & Text | Print | Product List | Glossary On
Versions: 1 2 3 4 5 6 7 8 9 10 11 12 13 14 15 16 17 18 19 20 21 22 23 24 25 26 27 28 29 30 31 32 33 34 35 36 37 38 39 40 41 42 43 44 45 46 47 48 49 50
000
ASUS43 KLSX 230707
RWRMO

WEATHER SUMMARY FOR MISSOURI
NATIONAL WEATHER SERVICE SPRINGFIELD MO
100 AM CST TUE JAN 23 2018

NOTE: "FAIR" INDICATES FEW OR NO CLOUDS BELOW 12,000 FEET WITH NO
       SIGNIFICANT WEATHER AND/OR OBSTRUCTIONS TO VISIBILITY.
       CURRENT SKY AND/OR WEATHER CONDITIONS ARE NOT AVAILABLE FOR
       CHILLICOTHE AND FARMINGTON.

MOZ001>031-035>038-043-044-053-054-230800-
...NORTHERN AND WESTERN MISSOURI...

CITY           SKY/WX    TMP DP  RH WIND       PRES   REMARKS
KANSAS CTY INT CLOUDY    31  26  82 NW17G28   29.86R WCI  19
KANSAS C DTWN  CLOUDY    33  25  72 NW18      29.87R WCI  22
LEE`S SUMMIT   CLOUDY    31  27  85 NW20G29   29.86R WCI  19
ST JOSEPH      CLOUDY    32  28  85 NW22G31   29.88R WCI  19
CHILLICOTHE      N/A     33  27  78 NW17G31   29.77R WCI  22
KIRKSVILLE     CLOUDY    33  32  96 NW17G26   29.66R WCI  22

$$
MOZ066>068-077>081-088>096-101>105-230800-
...SOUTHWEST MISSOURI...

CITY           SKY/WX    TMP DP  RH WIND       PRES   REMARKS
SPRINGFIELD    CLOUDY    33  25  72 NW20G37   29.87R WCI  21
JOPLIN         MOCLDY    33  27  78 W14G23    29.96R WCI  23
BRANSON        CLOUDY    36  27  69 W12G28    29.89R WCI  27

$$
MOZ032>034-039>042-045>050-055>058-069>072-230800-
...CENTRAL MISSOURI...

CITY           SKY/WX    TMP DP  RH WIND       PRES   REMARKS
COLUMBIA       LGT SNOW  33  31  92 W20G29    29.71R FOG     WCI  21
JEFFERSON CITY FLURRIES  34  31  88 W16G28    29.75R WCI  24
ROLLA          CLOUDY    33  29  85 W22G31    29.73R WCI  21
SEDALIA        CLOUDY    34  30  85 W20G26    29.79R WCI  23
WHITEMAN AFB   FLURRIES  33  27  76 NW14G29   29.78R WCI  24
WARRENSBURG    FLURRIES  32  28  86 W13G22    29.84R WCI  22
OSAGE BEACH    LGT RAIN  34  28  79 W16G24    29.80R WCI  24

$$
MOZ051-052-059>065-230800-
...EAST CENTRAL MISSOURI...

CITY           SKY/WX    TMP DP  RH WIND       PRES   REMARKS
ST LOUIS INTL  FLURRIES  35  32  88 SW21      29.65R WCI  24
SPIRIT OF STL  CLOUDY    35  33  92 SW20G32   29.67R WCI  24
ST CHARLES     FLURRIES  35  32  88 W14       29.65R WCI  26

$$
MOZ072>076-082>087-097>100-106>115-230800-
...SOUTH CENTRAL AND SOUTHEAST MISSOURI...

CITY           SKY/WX    TMP DP  RH WIND       PRES   REMARKS
CAPE GIRARDEAU CLOUDY    41  29  62 SW18      29.75R
FARMINGTON     CLOUDY    36  28  73 SW16      29.72R WCI  26
POPLAR BLUFF   MOCLDY    41  26  55 W20G33    29.80R
WEST PLAINS    CLOUDY    35  26  69 W20G32    29.81R WCI  24

$$



USA.gov is the U.S. government's official web portal to all federal, state and local government web resources and services.